Location: Gollag?dem
(16.8053°N, 80.8024°E)
Time: 13:17:18
(UTC+00:00)

Delta 142 - Pass Details

Date: 13 August 2020
Orbit: 549 x 1588 km, 28.4° (Epoch: 24 September)

Event Time Altitude Azimuth Distance (km) Brightness Sun altitude
Exits shadow 23:02:31 45° 244° (WSW) 750 3.5 -18.5°
Maximum altitude 23:03:14 51° 207° (SSW) 688 3.5 -18.3°
Drops below altitude 10° 23:07:21 10° 130° (SE) 1,893 6.4 -17.4°
Sets 23:09:49 0° 126° (SE) 2,881 7.5 -16.9°
